Tracking 28790 objects as of 19-Apr-2024
HD Live streaming from Space Station
objects crossing your sky now

DELTA 1 DEB

Track DELTA 1 DEB now!
10-day predictions


NORAD ID: 19834
Int'l Code: 1972-058JM
Perigee: 607.2 km
Apogee: 795.2 km
Inclination: 98.5 °
Period: 98.6 minutes
Semi major axis: 7072 km
RCS: 0.0177 m2 (small)
Launch date: July 23, 1972
Source: United States (US)
Launch site: AIR FORCE WESTERN TEST RANGE (AFWTR)

Note: This is SATELLITE DEBRIS
Your satellite tracking list
Your tracking list is empty




NASA's NSSDC Master Catalog

Two Line Element Set (TLE):
1 19834U 72058JM  24109.15162020  .00002141  00000-0  40739-3 0  9994
2 19834  98.5164 216.6638 0132939 337.6702  21.8741 14.59719175824610
Source of the keplerian elements: AFSPC